Location: Rounton
(54.4000°N, 1.3500°W)
Time: 22:07:11
(UTC+00:00)

Explorer 7 - Pass Details

Date: 06 December 2021
Orbit: 483 x 674 km, 50.3° (Epoch: 17 January)

Event Time Altitude Azimuth Distance (km) Brightness Sun altitude
Rises 10:19:33 0° 275° (W) 2,677 10.0 10.3°
Reaches altitude 10° 10:22:16 10° 258° (WSW) 1,750 9.3 10.4°
Maximum altitude 10:25:08 19° 212° (SSW) 1,236 9.3 10.6°
Drops below altitude 10° 10:27:55 10° 165° (SSE) 1,689 12.4 10.7°
Sets 10:30:29 0° 147° (SSE) 2,551 12.1 10.9°
